sat.trackr.live / text

‹ back to catalog

HULIANWANG DIGUI-166

NORAD 68658 · 2026-076C

PAYLOAD ACTIVE UNKNOWN

§ Identity

Operator
Country
PRC
Launch date
2026-04-08
Launch site
TAISC
Launch vehicle
Mass (kg)
RCS (m²)

External: N2YO · Heavens-Above · Gunter

§ Orbital elements

Epoch: 2026-05-24T13:39:53.853984Z

Period
107.89 min
Inclination
86.4938°
Eccentricity
0.0001795
Mean motion
13.34697661 rev/d
Perigee alt
1,127.7 km
Apogee alt
1,130.4 km
Semi-major
7,507.2 km
B*
-4.6598e-4
RAAN
51.8443°
Arg perigee
64.0295°
Mean anomaly
296.1030°
Rev number
624

§ Raw data

HULIANWANG DIGUI-1661 68658U 26076C   26144.56937331 -.00000218  00000+0 -46598-3 0  99952 68658  86.4938  51.8443 0001795  64.0295 296.1030 13.34697661  6245

JSON: /api/v1/satellites/68658 · /tle

For live sub-satellite position, see the globe view (requires WebGL).

§ Visibility from observer

Set your observer location to see the next 7 days of passes ≥ 10°. The values pass through the URL so the page stays shareable.

No JS? Fill the form by hand. The geolocation button needs JavaScript.